THOR ABLESTAR DEB, 136

Orbit data source: Space-Track

THOR ABLESTAR DEB, 136 is space debris in LEO originally from a launch on Thu, 29 Jun 1961 UTC launched from the Air Force Eastern Test Range (AFETR). Debris objects in space refer to the collection of defunct objects orbiting the Earth. Examples of debris include non-operational satellites, rocket bodies, and fragments generated from explosions, collisions, or faulty payload assembly.

Loading next visibility...
Identifier
136, 1961-015W
Orbit
LEO
Country
Flag of USUS
Related business
Manufacturer
Unknown
Mission
Spacecraft
Bus & Motor
Unknown
Mass
Unknown
Launch date (UTC)
1961-06-29 (65 years ago)
Launch vehicle
Unknown
Launch site
Air Force Eastern Test Range (AFETR)
Object type
Payload
Rocket body
Debris
Shape & HBR
Unknown shape, 0.4 m
Radar Cross Section
Medium (>0.1 m² and <1 m²)

Expand to show TLE details & history
Last TLE update: 9 hours ago

TLE from 9 hours ago
0 THOR ABLESTAR DEB
1 00136U 61015W   26258.14733584  .00000906  00000-0  29481-3 0  9993
2 00136  67.5284  48.9102 0047470 307.7378  51.9436 14.42325172369732
Epoch: 2026-09-15T03:32Z
TLE epoch observation values (Epoch: 2026-09-15T03:32:09.816Z)
Latitude
0.00002°
Longitude
1.75186°
Altitude
732.246 km
Speed
7.5 km/s
True Right ascension
03h 15m 38s
True Declination
0° 00' 00"
Sunlit
Object was in full shadow at epoch
Visualization orbit readout
Latitude
Unknown
Longitude
Unknown
Altitude
Unknown
Speed
Unknown
Apparent Right ascension
Unknown
Apparent Declination
Unknown
Sunlit
N/A
Visualization observer readout
Local Sidereal Time
04:44:33
Azimuth
Unknown
Elevation
Unknown
Doppler factor
Unknown
Orbital elements
Apogee altitude
782.929 km
Perigee altitude
715.263 km
Semi-major axis
7,127.233 km
Eccentricity
0.00475
Inclination
67.5284°
RAAN
48.9102°
Arg. of periapsis
307.7378°
True anomaly
52.37349°
Mean anomaly
51.9436°
Eccentric anomaly
52.15839°
Mean motion
3.60713 °/min
Orbital period
99.8 mins
BSTAR
0.00029481
Loading maneuver chart data...
Computing Atmospheric mass density...

Documentation

Showing up to 5 results
|